owner,sensor,date,latitude,longitude,vertical_datum,wind_speed,wind_to_direction,wind_speed_of_gust,qcFlag 
WAVCIS,ioos:station:WAVCIS:CSI06:1,2016-12-01T00:00:00Z,28.8667,-90.4833,10.0,6.728,8.0,,'11111222,11111222,99999999' 
WAVCIS,ioos:station:WAVCIS:CSI06:1,2016-12-01T01:00:00Z,28.8667,-90.4833,10.0,10.44,17.0,,'11111222,11111222,99999999' 
WAVCIS,ioos:station:WAVCIS:CSI06:1,2016-12-01T02:00:00Z,28.8667,-90.4833,10.0,10.52,12.0,,'11111222,11111222,99999999' 
WAVCIS,ioos:station:WAVCIS:CSI06:1,2016-12-01T03:00:00Z,28.8667,-90.4833,10.0,7.75,10.0,,'11111222,11111222,99999999' 
WAVCIS,ioos:station:WAVCIS:CSI06:1,2016-12-01T04:00:00Z,28.8667,-90.4833,10.0,8.33,13.0,,'11111222,11111222,99999999' 
WAVCIS,ioos:station:WAVCIS:CSI06:1,2016-12-01T05:00:00Z,28.8667,-90.4833,10.0,7.78,13.0,,'11111222,11111222,99999999' 
WAVCIS,ioos:station:WAVCIS:CSI06:1,2016-12-01T06:00:00Z,28.8667,-90.4833,10.0,6.215,8.0,,'11111222,11111222,99999999' 
WAVCIS,ioos:station:WAVCIS:CSI06:1,2016-12-01T07:00:00Z,28.8667,-90.4833,10.0,6.524,7.0,,'11111222,11111222,99999999' 
WAVCIS,ioos:station:WAVCIS:CSI06:1,2016-12-01T08:00:00Z,28.8667,-90.4833,10.0,6.937,5.0,,'11111222,11111222,99999999' 
WAVCIS,ioos:station:WAVCIS:CSI06:1,2016-12-01T09:00:00Z,28.8667,-90.4833,10.0,8.6,7.0,,'11111222,11111222,99999999' 
WAVCIS,ioos:station:WAVCIS:CSI06:1,2016-12-01T10:00:00Z,28.8667,-90.4833,10.0,12.35,15.0,,'11111222,11111222,99999999' 
WAVCIS,ioos:station:WAVCIS:CSI06:1,2016-12-01T11:00:00Z,28.8667,-90.4833,10.0,11.96,18.0,,'11111222,11111222,99999999' 
WAVCIS,ioos:station:WAVCIS:CSI06:1,2016-12-01T12:00:00Z,28.8667,-90.4833,10.0,12.83,28.0,,'11111222,11111222,99999999' 
WAVCIS,ioos:station:WAVCIS:CSI06:1,2016-12-01T13:00:00Z,28.8667,-90.4833,10.0,12.39,32.0,,'11111222,11111222,99999999' 
WAVCIS,ioos:station:WAVCIS:CSI06:1,2016-12-01T14:00:00Z,28.8667,-90.4833,10.0,11.58,43.0,,'11111222,11111222,99999999' 
WAVCIS,ioos:station:WAVCIS:CSI06:1,2016-12-01T15:00:00Z,28.8667,-90.4833,10.0,10.32,41.0,,'11111222,11111222,99999999' 
WAVCIS,ioos:station:WAVCIS:CSI06:1,2016-12-01T16:00:00Z,28.8667,-90.4833,10.0,9.46,47.0,,'11111222,11111222,99999999' 
WAVCIS,ioos:station:WAVCIS:CSI06:1,2016-12-01T17:00:00Z,28.8667,-90.4833,10.0,9.58,52.0,,'11111222,11111222,99999999' 
WAVCIS,ioos:station:WAVCIS:CSI06:1,2016-12-01T18:00:00Z,28.8667,-90.4833,10.0,8.88,53.0,,'11111222,11111222,99999999' 
WAVCIS,ioos:station:WAVCIS:CSI06:1,2016-12-01T19:00:00Z,28.8667,-90.4833,10.0,7.89,54.0,,'11111222,11111222,99999999' 
WAVCIS,ioos:station:WAVCIS:CSI06:1,2016-12-01T20:00:00Z,28.8667,-90.4833,10.0,7.87,60.0,,'11111222,11111222,99999999' 
WAVCIS,ioos:station:WAVCIS:CSI06:1,2016-12-01T21:00:00Z,28.8667,-90.4833,10.0,7.34,53.0,,'11111222,11111222,99999999' 
WAVCIS,ioos:station:WAVCIS:CSI06:1,2016-12-01T22:00:00Z,28.8667,-90.4833,10.0,8.18,55.0,,'11111222,11111222,99999999' 
WAVCIS,ioos:station:WAVCIS:CSI06:1,2016-12-01T23:00:00Z,28.8667,-90.4833,10.0,7.95,55.0,,'11111222,11111222,99999999' 
WAVCIS,ioos:station:WAVCIS:CSI06:1,2016-12-02T00:00:00Z,28.8667,-90.4833,10.0,8.4,58.0,,'11111222,11111222,99999999' 
WAVCIS,ioos:station:WAVCIS:CSI06:1,2016-12-02T01:00:00Z,28.8667,-90.4833,10.0,7.45,54.0,,'11111222,11111222,99999999' 
WAVCIS,ioos:station:WAVCIS:CSI06:1,2016-12-02T02:00:00Z,28.8667,-90.4833,10.0,8.36,63.0,,'11111222,11111222,99999999' 
WAVCIS,ioos:station:WAVCIS:CSI06:1,2016-12-02T03:00:00Z,28.8667,-90.4833,10.0,7.7,67.0,,'11111222,11111222,99999999' 
WAVCIS,ioos:station:WAVCIS:CSI06:1,2016-12-02T04:00:00Z,28.8667,-90.4833,10.0,8.11,66.0,,'11111222,11111222,99999999' 
WAVCIS,ioos:station:WAVCIS:CSI06:1,2016-12-02T05:00:00Z,28.8667,-90.4833,10.0,7.3,70.0,,'11111222,11111222,99999999' 
WAVCIS,ioos:station:WAVCIS:CSI06:1,2016-12-02T06:00:00Z,28.8667,-90.4833,10.0,8.49,71.0,,'11111222,11111222,99999999' 
WAVCIS,ioos:station:WAVCIS:CSI06:1,2016-12-02T07:00:00Z,28.8667,-90.4833,10.0,8.52,74.0,,'11111222,11111222,99999999' 
WAVCIS,ioos:station:WAVCIS:CSI06:1,2016-12-02T08:00:00Z,28.8667,-90.4833,10.0,8.95,70.0,,'11111222,11111222,99999999' 
WAVCIS,ioos:station:WAVCIS:CSI06:1,2016-12-02T09:00:00Z,28.8667,-90.4833,10.0,9.83,62.0,,'11111222,11111222,99999999' 
WAVCIS,ioos:station:WAVCIS:CSI06:1,2016-12-02T10:00:00Z,28.8667,-90.4833,10.0,10.64,70.0,,'11111222,11111222,99999999' 
WAVCIS,ioos:station:WAVCIS:CSI06:1,2016-12-02T11:00:00Z,28.8667,-90.4833,10.0,10.61,69.0,,'11111222,11111222,99999999' 
WAVCIS,ioos:station:WAVCIS:CSI06:1,2016-12-02T12:00:00Z,28.8667,-90.4833,10.0,11.4,70.0,,'11111222,11111222,99999999' 
WAVCIS,ioos:station:WAVCIS:CSI06:1,2016-12-02T13:00:00Z,28.8667,-90.4833,10.0,12.35,74.0,,'11111222,11111222,99999999' 
WAVCIS,ioos:station:WAVCIS:CSI06:1,2016-12-02T14:00:00Z,28.8667,-90.4833,10.0,12.69,75.0,,'11111222,11111222,99999999' 
WAVCIS,ioos:station:WAVCIS:CSI06:1,2016-12-02T15:00:00Z,28.8667,-90.4833,10.0,11.43,81.0,,'11111222,11111222,99999999' 
WAVCIS,ioos:station:WAVCIS:CSI06:1,2016-12-02T16:00:00Z,28.8667,-90.4833,10.0,11.66,80.0,,'11111222,11111222,99999999' 
WAVCIS,ioos:station:WAVCIS:CSI06:1,2016-12-02T17:00:00Z,28.8667,-90.4833,10.0,12.3,80.0,,'11111222,11111222,99999999' 
WAVCIS,ioos:station:WAVCIS:CSI06:1,2016-12-02T18:00:00Z,28.8667,-90.4833,10.0,12.63,81.0,,'11111222,11111222,99999999' 
WAVCIS,ioos:station:WAVCIS:CSI06:1,2016-12-02T19:00:00Z,28.8667,-90.4833,10.0,12.54,77.0,,'11111222,11111222,99999999' 
WAVCIS,ioos:station:WAVCIS:CSI06:1,2016-12-02T20:00:00Z,28.8667,-90.4833,10.0,12.03,81.0,,'11111222,11111222,99999999' 
WAVCIS,ioos:station:WAVCIS:CSI06:1,2016-12-02T21:00:00Z,28.8667,-90.4833,10.0,12.02,87.0,,'11111222,11111222,99999999' 
WAVCIS,ioos:station:WAVCIS:CSI06:1,2016-12-02T22:00:00Z,28.8667,-90.4833,10.0,12.0,85.0,,'11111222,11111222,99999999' 
WAVCIS,ioos:station:WAVCIS:CSI06:1,2016-12-02T23:00:00Z,28.8667,-90.4833,10.0,14.66,84.0,,'11111222,11111222,99999999' 
WAVCIS,ioos:station:WAVCIS:CSI06:1,2016-12-03T00:00:00Z,28.8667,-90.4833,10.0,14.18,80.0,,'11111222,11111222,99999999' 
WAVCIS,ioos:station:WAVCIS:CSI06:1,2016-12-03T01:00:00Z,28.8667,-90.4833,10.0,13.74,83.0,,'11111222,11111222,99999999' 
WAVCIS,ioos:station:WAVCIS:CSI06:1,2016-12-03T02:00:00Z,28.8667,-90.4833,10.0,13.72,73.0,,'11111222,11111222,99999999' 
WAVCIS,ioos:station:WAVCIS:CSI06:1,2016-12-03T03:00:00Z,28.8667,-90.4833,10.0,14.39,82.0,,'11111222,11111222,99999999' 
WAVCIS,ioos:station:WAVCIS:CSI06:1,2016-12-03T04:00:00Z,28.8667,-90.4833,10.0,12.68,87.0,,'11111222,11111222,99999999' 
WAVCIS,ioos:station:WAVCIS:CSI06:1,2016-12-03T05:00:00Z,28.8667,-90.4833,10.0,14.35,98.0,,'11111222,11111222,99999999' 
WAVCIS,ioos:station:WAVCIS:CSI06:1,2016-12-03T06:00:00Z,28.8667,-90.4833,10.0,11.87,99.0,,'11111222,11111222,99999999' 
WAVCIS,ioos:station:WAVCIS:CSI06:1,2016-12-03T07:00:00Z,28.8667,-90.4833,10.0,12.07,97.0,,'11111222,11111222,99999999' 
WAVCIS,ioos:station:WAVCIS:CSI06:1,2016-12-03T08:00:00Z,28.8667,-90.4833,10.0,11.54,107.0,,'11111222,11111222,99999999' 
WAVCIS,ioos:station:WAVCIS:CSI06:1,2016-12-03T09:00:00Z,28.8667,-90.4833,10.0,12.49,106.0,,'11111222,11111222,99999999' 
WAVCIS,ioos:station:WAVCIS:CSI06:1,2016-12-03T10:00:00Z,28.8667,-90.4833,10.0,12.23,111.0,,'11111222,11111222,99999999' 
WAVCIS,ioos:station:WAVCIS:CSI06:1,2016-12-03T11:00:00Z,28.8667,-90.4833,10.0,13.2,112.0,,'11111222,11111222,99999999' 
WAVCIS,ioos:station:WAVCIS:CSI06:1,2016-12-03T12:00:00Z,28.8667,-90.4833,10.0,12.16,118.0,,'11111222,11111222,99999999' 
WAVCIS,ioos:station:WAVCIS:CSI06:1,2016-12-03T13:00:00Z,28.8667,-90.4833,10.0,12.87,120.0,,'11111222,11111222,99999999' 
WAVCIS,ioos:station:WAVCIS:CSI06:1,2016-12-03T14:00:00Z,28.8667,-90.4833,10.0,11.46,124.0,,'11111222,11111222,99999999' 
WAVCIS,ioos:station:WAVCIS:CSI06:1,2016-12-03T15:00:00Z,28.8667,-90.4833,10.0,11.07,122.0,,'11111222,11111222,99999999' 
WAVCIS,ioos:station:WAVCIS:CSI06:1,2016-12-03T16:00:00Z,28.8667,-90.4833,10.0,10.14,121.0,,'11111222,11111222,99999999' 
WAVCIS,ioos:station:WAVCIS:CSI06:1,2016-12-03T17:00:00Z,28.8667,-90.4833,10.0,10.75,119.0,,'11111222,11111222,99999999' 
WAVCIS,ioos:station:WAVCIS:CSI06:1,2016-12-03T18:00:00Z,28.8667,-90.4833,10.0,11.4,120.0,,'11111222,11111222,99999999' 
WAVCIS,ioos:station:WAVCIS:CSI06:1,2016-12-03T19:00:00Z,28.8667,-90.4833,10.0,10.6,121.0,,'11111222,11111222,99999999' 
WAVCIS,ioos:station:WAVCIS:CSI06:1,2016-12-03T20:00:00Z,28.8667,-90.4833,10.0,10.66,125.0,,'11111222,11111222,99999999' 
WAVCIS,ioos:station:WAVCIS:CSI06:1,2016-12-03T21:00:00Z,28.8667,-90.4833,10.0,10.59,128.0,,'11111222,11111222,99999999' 
WAVCIS,ioos:station:WAVCIS:CSI06:1,2016-12-03T22:00:00Z,28.8667,-90.4833,10.0,9.08,124.0,,'11111222,11111222,99999999' 
WAVCIS,ioos:station:WAVCIS:CSI06:1,2016-12-03T23:00:00Z,28.8667,-90.4833,10.0,10.04,122.0,,'11111222,11111222,99999999' 
WAVCIS,ioos:station:WAVCIS:CSI06:1,2016-12-04T00:00:00Z,28.8667,-90.4833,10.0,11.12,118.0,,'11111222,11111222,99999999' 
WAVCIS,ioos:station:WAVCIS:CSI06:1,2016-12-04T01:00:00Z,28.8667,-90.4833,10.0,9.66,118.0,,'11111222,11111222,99999999' 
WAVCIS,ioos:station:WAVCIS:CSI06:1,2016-12-04T02:00:00Z,28.8667,-90.4833,10.0,10.54,121.0,,'11111222,11111222,99999999' 
WAVCIS,ioos:station:WAVCIS:CSI06:1,2016-12-04T03:00:00Z,28.8667,-90.4833,10.0,11.53,120.0,,'11111222,11111222,99999999' 
WAVCIS,ioos:station:WAVCIS:CSI06:1,2016-12-04T04:00:00Z,28.8667,-90.4833,10.0,9.91,118.0,,'11111222,11111222,99999999' 
WAVCIS,ioos:station:WAVCIS:CSI06:1,2016-12-04T05:00:00Z,28.8667,-90.4833,10.0,10.61,144.0,,'11111222,11111222,99999999' 
WAVCIS,ioos:station:WAVCIS:CSI06:1,2016-12-04T06:00:00Z,28.8667,-90.4833,10.0,8.63,144.0,,'11111222,11111222,99999999' 
WAVCIS,ioos:station:WAVCIS:CSI06:1,2016-12-04T07:00:00Z,28.8667,-90.4833,10.0,10.04,198.0,,'11111222,11111222,99999999' 
WAVCIS,ioos:station:WAVCIS:CSI06:1,2016-12-04T08:00:00Z,28.8667,-90.4833,10.0,8.49,165.0,,'11111222,11111222,99999999' 
WAVCIS,ioos:station:WAVCIS:CSI06:1,2016-12-04T09:00:00Z,28.8667,-90.4833,10.0,7.75,190.0,,'11111222,11111222,99999999' 
WAVCIS,ioos:station:WAVCIS:CSI06:1,2016-12-04T10:00:00Z,28.8667,-90.4833,10.0,9.18,192.0,,'11111222,11111222,99999999' 
WAVCIS,ioos:station:WAVCIS:CSI06:1,2016-12-04T11:00:00Z,28.8667,-90.4833,10.0,8.36,200.0,,'11111222,11111222,99999999' 
WAVCIS,ioos:station:WAVCIS:CSI06:1,2016-12-04T12:00:00Z,28.8667,-90.4833,10.0,9.11,185.0,,'11111222,11111222,99999999' 
WAVCIS,ioos:station:WAVCIS:CSI06:1,2016-12-04T13:00:00Z,28.8667,-90.4833,10.0,8.96,176.0,,'11111222,11111222,99999999' 
WAVCIS,ioos:station:WAVCIS:CSI06:1,2016-12-04T14:00:00Z,28.8667,-90.4833,10.0,7.88,180.0,,'11111222,11111222,99999999' 
WAVCIS,ioos:station:WAVCIS:CSI06:1,2016-12-04T15:00:00Z,28.8667,-90.4833,10.0,8.31,186.0,,'11111222,11111222,99999999' 
WAVCIS,ioos:station:WAVCIS:CSI06:1,2016-12-04T16:00:00Z,28.8667,-90.4833,10.0,8.35,189.0,,'11111222,11111222,99999999' 
WAVCIS,ioos:station:WAVCIS:CSI06:1,2016-12-04T17:00:00Z,28.8667,-90.4833,10.0,6.792,209.0,,'11111222,11111222,99999999' 
WAVCIS,ioos:station:WAVCIS:CSI06:1,2016-12-04T18:00:00Z,28.8667,-90.4833,10.0,4.894,312.0,,'11111222,11111222,99999999' 
WAVCIS,ioos:station:WAVCIS:CSI06:1,2016-12-04T19:00:00Z,28.8667,-90.4833,10.0,4.904,218.0,,'11111222,11111222,99999999' 
WAVCIS,ioos:station:WAVCIS:CSI06:1,2016-12-04T20:00:00Z,28.8667,-90.4833,10.0,6.056,177.0,,'11111222,11111222,99999999' 
WAVCIS,ioos:station:WAVCIS:CSI06:1,2016-12-04T21:00:00Z,28.8667,-90.4833,10.0,4.836,190.0,,'11111222,11111222,99999999' 
WAVCIS,ioos:station:WAVCIS:CSI06:1,2016-12-04T22:00:00Z,28.8667,-90.4833,10.0,3.456,291.0,,'11111222,11111222,99999999' 
WAVCIS,ioos:station:WAVCIS:CSI06:1,2016-12-04T23:00:00Z,28.8667,-90.4833,10.0,8.93,6.0,,'11111222,11111222,99999999' 
WAVCIS,ioos:station:WAVCIS:CSI06:1,2016-12-05T00:00:00Z,28.8667,-90.4833,10.0,8.65,1.0,,'11111222,11111222,99999999' 
WAVCIS,ioos:station:WAVCIS:CSI06:1,2016-12-05T01:00:00Z,28.8667,-90.4833,10.0,12.6,25.0,,'11111222,11111222,99999999' 
WAVCIS,ioos:station:WAVCIS:CSI06:1,2016-12-05T02:00:00Z,28.8667,-90.4833,10.0,10.95,24.0,,'11111222,11111222,99999999' 
WAVCIS,ioos:station:WAVCIS:CSI06:1,2016-12-05T03:00:00Z,28.8667,-90.4833,10.0,10.17,22.0,,'11111222,11111222,99999999' 
WAVCIS,ioos:station:WAVCIS:CSI06:1,2016-12-05T04:00:00Z,28.8667,-90.4833,10.0,9.72,56.0,,'11111222,11111222,99999999' 
WAVCIS,ioos:station:WAVCIS:CSI06:1,2016-12-05T05:00:00Z,28.8667,-90.4833,10.0,10.94,81.0,,'11111222,11111222,99999999' 
WAVCIS,ioos:station:WAVCIS:CSI06:1,2016-12-05T06:00:00Z,28.8667,-90.4833,10.0,11.83,93.0,,'11111222,11111222,99999999' 
WAVCIS,ioos:station:WAVCIS:CSI06:1,2016-12-05T07:00:00Z,28.8667,-90.4833,10.0,12.52,109.0,,'11111222,11111222,99999999' 
WAVCIS,ioos:station:WAVCIS:CSI06:1,2016-12-05T08:00:00Z,28.8667,-90.4833,10.0,11.96,113.0,,'11111222,11111222,99999999' 
WAVCIS,ioos:station:WAVCIS:CSI06:1,2016-12-05T09:00:00Z,28.8667,-90.4833,10.0,10.53,121.0,,'11111222,11111222,99999999' 
WAVCIS,ioos:station:WAVCIS:CSI06:1,2016-12-05T10:00:00Z,28.8667,-90.4833,10.0,9.25,119.0,,'11111222,11111222,99999999' 
WAVCIS,ioos:station:WAVCIS:CSI06:1,2016-12-05T11:00:00Z,28.8667,-90.4833,10.0,9.52,117.0,,'11111222,11111222,99999999' 
WAVCIS,ioos:station:WAVCIS:CSI06:1,2016-12-05T12:00:00Z,28.8667,-90.4833,10.0,7.0,102.0,,'11111222,11111222,99999999' 
WAVCIS,ioos:station:WAVCIS:CSI06:1,2016-12-05T13:00:00Z,28.8667,-90.4833,10.0,6.607,98.0,,'11111222,11111222,99999999' 
WAVCIS,ioos:station:WAVCIS:CSI06:1,2016-12-05T14:00:00Z,28.8667,-90.4833,10.0,8.86,51.0,,'11111222,11111222,99999999' 
WAVCIS,ioos:station:WAVCIS:CSI06:1,2016-12-05T15:00:00Z,28.8667,-90.4833,10.0,9.24,71.0,,'11111222,11111222,99999999' 
WAVCIS,ioos:station:WAVCIS:CSI06:1,2016-12-05T16:00:00Z,28.8667,-90.4833,10.0,8.69,82.0,,'11111222,11111222,99999999' 
WAVCIS,ioos:station:WAVCIS:CSI06:1,2016-12-05T17:00:00Z,28.8667,-90.4833,10.0,8.9,160.0,,'11111222,11111222,99999999' 
WAVCIS,ioos:station:WAVCIS:CSI06:1,2016-12-05T18:00:00Z,28.8667,-90.4833,10.0,7.83,187.0,,'11111222,11111222,99999999' 
WAVCIS,ioos:station:WAVCIS:CSI06:1,2016-12-05T19:00:00Z,28.8667,-90.4833,10.0,9.19,198.0,,'11111222,11111222,99999999' 
WAVCIS,ioos:station:WAVCIS:CSI06:1,2016-12-05T20:00:00Z,28.8667,-90.4833,10.0,8.62,215.0,,'11111222,11111222,99999999' 
WAVCIS,ioos:station:WAVCIS:CSI06:1,2016-12-05T21:00:00Z,28.8667,-90.4833,10.0,5.06,219.0,,'11111222,11111222,99999999' 
WAVCIS,ioos:station:WAVCIS:CSI06:1,2016-12-05T22:00:00Z,28.8667,-90.4833,10.0,2.284,33.0,,'11111222,11111222,99999999' 
WAVCIS,ioos:station:WAVCIS:CSI06:1,2016-12-05T23:00:00Z,28.8667,-90.4833,10.0,3.422,81.0,,'11111222,11111222,99999999' 
WAVCIS,ioos:station:WAVCIS:CSI06:1,2016-12-06T00:00:00Z,28.8667,-90.4833,10.0,3.532,178.0,,'11111222,11111222,99999999' 
WAVCIS,ioos:station:WAVCIS:CSI06:1,2016-12-06T01:00:00Z,28.8667,-90.4833,10.0,5.489,174.0,,'11111222,11111222,99999999' 
WAVCIS,ioos:station:WAVCIS:CSI06:1,2016-12-06T02:00:00Z,28.8667,-90.4833,10.0,6.402,251.0,,'11111222,11111222,99999999' 
WAVCIS,ioos:station:WAVCIS:CSI06:1,2016-12-06T03:00:00Z,28.8667,-90.4833,10.0,4.696,238.0,,'11111222,11111222,99999999' 
WAVCIS,ioos:station:WAVCIS:CSI06:1,2016-12-06T04:00:00Z,28.8667,-90.4833,10.0,11.9,257.0,,'11111222,11111222,99999999' 
WAVCIS,ioos:station:WAVCIS:CSI06:1,2016-12-06T05:00:00Z,28.8667,-90.4833,10.0,13.84,266.0,,'11111222,11111222,99999999' 
WAVCIS,ioos:station:WAVCIS:CSI06:1,2016-12-06T06:00:00Z,28.8667,-90.4833,10.0,13.09,270.0,,'11111222,11111222,99999999' 
WAVCIS,ioos:station:WAVCIS:CSI06:1,2016-12-06T07:00:00Z,28.8667,-90.4833,10.0,13.68,271.0,,'11111222,11111222,99999999' 
WAVCIS,ioos:station:WAVCIS:CSI06:1,2016-12-06T08:00:00Z,28.8667,-90.4833,10.0,14.34,272.0,,'11111222,11111222,99999999' 
WAVCIS,ioos:station:WAVCIS:CSI06:1,2016-12-06T09:00:00Z,28.8667,-90.4833,10.0,13.88,272.0,,'11111222,11111222,99999999' 
WAVCIS,ioos:station:WAVCIS:CSI06:1,2016-12-06T10:00:00Z,28.8667,-90.4833,10.0,14.16,277.0,,'11111222,11111222,99999999' 
WAVCIS,ioos:station:WAVCIS:CSI06:1,2016-12-06T11:00:00Z,28.8667,-90.4833,10.0,14.61,283.0,,'11111222,11111222,99999999' 
WAVCIS,ioos:station:WAVCIS:CSI06:1,2016-12-06T12:00:00Z,28.8667,-90.4833,10.0,14.38,287.0,,'11111222,11111222,99999999' 
WAVCIS,ioos:station:WAVCIS:CSI06:1,2016-12-06T13:00:00Z,28.8667,-90.4833,10.0,11.29,291.0,,'11111222,11111222,99999999' 
WAVCIS,ioos:station:WAVCIS:CSI06:1,2016-12-06T14:00:00Z,28.8667,-90.4833,10.0,11.1,300.0,,'11111222,11111222,99999999' 
WAVCIS,ioos:station:WAVCIS:CSI06:1,2016-12-06T15:00:00Z,28.8667,-90.4833,10.0,8.86,312.0,,'11111222,11111222,99999999' 
WAVCIS,ioos:station:WAVCIS:CSI06:1,2016-12-06T16:00:00Z,28.8667,-90.4833,10.0,7.23,301.0,,'11111222,11111222,99999999' 
WAVCIS,ioos:station:WAVCIS:CSI06:1,2016-12-06T17:00:00Z,28.8667,-90.4833,10.0,7.41,304.0,,'11111222,11111222,99999999' 
WAVCIS,ioos:station:WAVCIS:CSI06:1,2016-12-06T18:00:00Z,28.8667,-90.4833,10.0,8.59,300.0,,'11111222,11111222,99999999' 
WAVCIS,ioos:station:WAVCIS:CSI06:1,2016-12-06T19:00:00Z,28.8667,-90.4833,10.0,8.11,292.0,,'11111222,11111222,99999999' 
WAVCIS,ioos:station:WAVCIS:CSI06:1,2016-12-06T20:00:00Z,28.8667,-90.4833,10.0,6.848,296.0,,'11111222,11111222,99999999' 
WAVCIS,ioos:station:WAVCIS:CSI06:1,2016-12-06T21:00:00Z,28.8667,-90.4833,10.0,6.326,286.0,,'11111222,11111222,99999999' 
WAVCIS,ioos:station:WAVCIS:CSI06:1,2016-12-06T22:00:00Z,28.8667,-90.4833,10.0,5.65,287.0,,'11111222,11111222,99999999' 
WAVCIS,ioos:station:WAVCIS:CSI06:1,2016-12-06T23:00:00Z,28.8667,-90.4833,10.0,4.546,274.0,,'11111222,11111222,99999999' 
WAVCIS,ioos:station:WAVCIS:CSI06:1,2016-12-07T00:00:00Z,28.8667,-90.4833,10.0,4.393,281.0,,'11111222,11111222,99999999' 
WAVCIS,ioos:station:WAVCIS:CSI06:1,2016-12-07T01:00:00Z,28.8667,-90.4833,10.0,4.886,295.0,,'11111222,11111222,99999999' 
WAVCIS,ioos:station:WAVCIS:CSI06:1,2016-12-07T02:00:00Z,28.8667,-90.4833,10.0,4.323,313.0,,'11111222,11111222,99999999' 
WAVCIS,ioos:station:WAVCIS:CSI06:1,2016-12-07T03:00:00Z,28.8667,-90.4833,10.0,3.237,334.0,,'11111222,11111222,99999999' 
WAVCIS,ioos:station:WAVCIS:CSI06:1,2016-12-07T04:00:00Z,28.8667,-90.4833,10.0,4.591,18.0,,'11111222,11111222,99999999' 
WAVCIS,ioos:station:WAVCIS:CSI06:1,2016-12-07T05:00:00Z,28.8667,-90.4833,10.0,5.961,60.0,,'11111222,11111222,99999999' 
WAVCIS,ioos:station:WAVCIS:CSI06:1,2016-12-07T06:00:00Z,28.8667,-90.4833,10.0,6.011,67.0,,'11111222,11111222,99999999' 
WAVCIS,ioos:station:WAVCIS:CSI06:1,2016-12-07T07:00:00Z,28.8667,-90.4833,10.0,3.984,87.0,,'11111222,11111222,99999999' 
WAVCIS,ioos:station:WAVCIS:CSI06:1,2016-12-07T08:00:00Z,28.8667,-90.4833,10.0,3.611,92.0,,'11111222,11111222,99999999' 
WAVCIS,ioos:station:WAVCIS:CSI06:1,2016-12-07T09:00:00Z,28.8667,-90.4833,10.0,4.112,77.0,,'11111222,11111222,99999999' 
WAVCIS,ioos:station:WAVCIS:CSI06:1,2016-12-07T10:00:00Z,28.8667,-90.4833,10.0,5.048,64.0,,'11111222,11111222,99999999' 
WAVCIS,ioos:station:WAVCIS:CSI06:1,2016-12-07T11:00:00Z,28.8667,-90.4833,10.0,7.17,63.0,,'11111222,11111222,99999999' 
WAVCIS,ioos:station:WAVCIS:CSI06:1,2016-12-07T12:00:00Z,28.8667,-90.4833,10.0,6.84,68.0,,'11111222,11111222,99999999' 
WAVCIS,ioos:station:WAVCIS:CSI06:1,2016-12-07T13:00:00Z,28.8667,-90.4833,10.0,5.977,101.0,,'11111222,11111222,99999999' 
WAVCIS,ioos:station:WAVCIS:CSI06:1,2016-12-07T14:00:00Z,28.8667,-90.4833,10.0,5.942,84.0,,'11111222,11111222,99999999' 
WAVCIS,ioos:station:WAVCIS:CSI06:1,2016-12-07T15:00:00Z,28.8667,-90.4833,10.0,6.632,90.0,,'11111222,11111222,99999999' 
WAVCIS,ioos:station:WAVCIS:CSI06:1,2016-12-07T16:00:00Z,28.8667,-90.4833,10.0,7.24,86.0,,'11111222,11111222,99999999' 
WAVCIS,ioos:station:WAVCIS:CSI06:1,2016-12-07T17:00:00Z,28.8667,-90.4833,10.0,6.518,88.0,,'11111222,11111222,99999999' 
WAVCIS,ioos:station:WAVCIS:CSI06:1,2016-12-07T18:00:00Z,28.8667,-90.4833,10.0,6.375,88.0,,'11111222,11111222,99999999' 
WAVCIS,ioos:station:WAVCIS:CSI06:1,2016-12-07T19:00:00Z,28.8667,-90.4833,10.0,6.971,87.0,,'11111222,11111222,99999999' 
WAVCIS,ioos:station:WAVCIS:CSI06:1,2016-12-07T20:00:00Z,28.8667,-90.4833,10.0,7.12,74.0,,'11111222,11111222,99999999' 
WAVCIS,ioos:station:WAVCIS:CSI06:1,2016-12-07T21:00:00Z,28.8667,-90.4833,10.0,6.93,76.0,,'11111222,11111222,99999999' 
WAVCIS,ioos:station:WAVCIS:CSI06:1,2016-12-07T22:00:00Z,28.8667,-90.4833,10.0,7.33,83.0,,'11111222,11111222,99999999' 
WAVCIS,ioos:station:WAVCIS:CSI06:1,2016-12-07T23:00:00Z,28.8667,-90.4833,10.0,6.988,78.0,,'11111222,11111222,99999999' 
WAVCIS,ioos:station:WAVCIS:CSI06:1,2016-12-08T00:00:00Z,28.8667,-90.4833,10.0,3.845,64.0,,'11111222,11111222,99999999' 
WAVCIS,ioos:station:WAVCIS:CSI06:1,2016-12-08T01:00:00Z,28.8667,-90.4833,10.0,0.933,108.0,,'11111222,11111222,99999999' 
WAVCIS,ioos:station:WAVCIS:CSI06:1,2016-12-08T02:00:00Z,28.8667,-90.4833,10.0,8.05,44.0,,'11111222,11111222,99999999' 
WAVCIS,ioos:station:WAVCIS:CSI06:1,2016-12-08T03:00:00Z,28.8667,-90.4833,10.0,8.61,57.0,,'11111222,11111222,99999999' 
WAVCIS,ioos:station:WAVCIS:CSI06:1,2016-12-08T04:00:00Z,28.8667,-90.4833,10.0,8.18,54.0,,'11111222,11111222,99999999' 
WAVCIS,ioos:station:WAVCIS:CSI06:1,2016-12-08T05:00:00Z,28.8667,-90.4833,10.0,7.7,52.0,,'11111222,11111222,99999999' 
WAVCIS,ioos:station:WAVCIS:CSI06:1,2016-12-08T06:00:00Z,28.8667,-90.4833,10.0,7.87,52.0,,'11111222,11111222,99999999' 
WAVCIS,ioos:station:WAVCIS:CSI06:1,2016-12-08T07:00:00Z,28.8667,-90.4833,10.0,8.09,47.0,,'11111222,11111222,99999999' 
WAVCIS,ioos:station:WAVCIS:CSI06:1,2016-12-08T08:00:00Z,28.8667,-90.4833,10.0,9.09,52.0,,'11111222,11111222,99999999' 
WAVCIS,ioos:station:WAVCIS:CSI06:1,2016-12-08T09:00:00Z,28.8667,-90.4833,10.0,9.25,50.0,,'11111222,11111222,99999999' 
WAVCIS,ioos:station:WAVCIS:CSI06:1,2016-12-08T10:00:00Z,28.8667,-90.4833,10.0,10.69,77.0,,'11111222,11111222,99999999' 
WAVCIS,ioos:station:WAVCIS:CSI06:1,2016-12-08T11:00:00Z,28.8667,-90.4833,10.0,9.24,85.0,,'11111222,11111222,99999999' 
WAVCIS,ioos:station:WAVCIS:CSI06:1,2016-12-08T12:00:00Z,28.8667,-90.4833,10.0,9.68,43.0,,'11111222,11111222,99999999' 
WAVCIS,ioos:station:WAVCIS:CSI06:1,2016-12-08T13:00:00Z,28.8667,-90.4833,10.0,12.15,31.0,,'11111222,11111222,99999999' 
WAVCIS,ioos:station:WAVCIS:CSI06:1,2016-12-08T14:00:00Z,28.8667,-90.4833,10.0,12.14,36.0,,'11111222,11111222,99999999' 
WAVCIS,ioos:station:WAVCIS:CSI06:1,2016-12-08T15:00:00Z,28.8667,-90.4833,10.0,14.55,38.0,,'11111222,11111222,99999999' 
WAVCIS,ioos:station:WAVCIS:CSI06:1,2016-12-08T16:00:00Z,28.8667,-90.4833,10.0,15.16,39.0,,'11111222,11111222,99999999' 
WAVCIS,ioos:station:WAVCIS:CSI06:1,2016-12-08T17:00:00Z,28.8667,-90.4833,10.0,15.53,43.0,,'11111222,11111222,99999999' 
WAVCIS,ioos:station:WAVCIS:CSI06:1,2016-12-08T18:00:00Z,28.8667,-90.4833,10.0,15.85,36.0,,'11111222,11111222,99999999' 
WAVCIS,ioos:station:WAVCIS:CSI06:1,2016-12-08T19:00:00Z,28.8667,-90.4833,10.0,15.44,36.0,,'11111222,11111222,99999999' 
WAVCIS,ioos:station:WAVCIS:CSI06:1,2016-12-08T20:00:00Z,28.8667,-90.4833,10.0,13.77,35.0,,'11111222,11111222,99999999' 
WAVCIS,ioos:station:WAVCIS:CSI06:1,2016-12-08T21:00:00Z,28.8667,-90.4833,10.0,15.01,34.0,,'11111222,11111222,99999999' 
WAVCIS,ioos:station:WAVCIS:CSI06:1,2016-12-08T22:00:00Z,28.8667,-90.4833,10.0,13.7,40.0,,'11111222,11111222,99999999' 
WAVCIS,ioos:station:WAVCIS:CSI06:1,2016-12-08T23:00:00Z,28.8667,-90.4833,10.0,14.34,34.0,,'11111222,11111222,99999999' 
WAVCIS,ioos:station:WAVCIS:CSI06:1,2016-12-09T00:00:00Z,28.8667,-90.4833,10.0,15.96,33.0,,'11111222,11111222,99999999' 
WAVCIS,ioos:station:WAVCIS:CSI06:1,2016-12-09T01:00:00Z,28.8667,-90.4833,10.0,15.95,36.0,,'11111222,11111222,99999999' 
WAVCIS,ioos:station:WAVCIS:CSI06:1,2016-12-09T02:00:00Z,28.8667,-90.4833,10.0,16.83,35.0,,'11111222,11111222,99999999' 
WAVCIS,ioos:station:WAVCIS:CSI06:1,2016-12-09T03:00:00Z,28.8667,-90.4833,10.0,15.85,43.0,,'11111222,11111222,99999999' 
WAVCIS,ioos:station:WAVCIS:CSI06:1,2016-12-09T04:00:00Z,28.8667,-90.4833,10.0,16.75,42.0,,'11111222,11111222,99999999' 
WAVCIS,ioos:station:WAVCIS:CSI06:1,2016-12-09T05:00:00Z,28.8667,-90.4833,10.0,14.78,33.0,,'11111222,11111222,99999999' 
WAVCIS,ioos:station:WAVCIS:CSI06:1,2016-12-09T06:00:00Z,28.8667,-90.4833,10.0,16.7,34.0,,'11111222,11111222,99999999' 